Plovdiv, Bulgaria

11:09 PM EEST on June 22, 2018 (GMT +0300)
Plovdiv

Weather History for LBPD - June, 2018

Change the Weather History Date:

Friday, June 22, 2018

  Actual Average Record
Temperature  
Mean Temperature 76 °F -  
Max Temperature 91 °F - - ()
Min Temperature 62 °F - - ()
Cooling Degree Days 12    
Growing Degree Days 26 (Base 50)    
Moisture  
Dew Point 54 °F    
Average Humidity 48    
Maximum Humidity 77    
Minimum Humidity 24    
Precipitation  
Precipitation 0.00 in - - ()
Sea Level Pressure  
Sea Level Pressure 29.86 in    
Wind  
Wind Speed 5 mph ()    
Max Wind Speed 24 mph    
Max Gust Speed -    
Visibility 6.2 miles    
Events      
T = Trace of Precipitation, MM = Missing Value Source: Averaged Metar Reports

Daily Weather History Graph

Daily Weather History Graph

Search for Another Location

Airport or City:

Astronomy

Jun. 22, 2018 Rise Set
Actual Time 5:45 AM EEST 9:00 PM EEST
Civil Twilight 5:10 AM EEST 9:35 PM EEST
Nautical Twilight 4:25 AM EEST 10:19 PM EEST
Astronomical Twilight 3:31 AM EEST 11:14 PM EEST
Moon 3:23 PM EEST 2:27 AM EEST
Length of Visible Light 16h 24m
Length of Day
15h 15m
Waxing Gibbous, 70% of the Moon is Illuminated
Today
Waxing Gibbous
Jun 28
Full
Jul 6
Last Quarter
Jul 13
New
Jul 19
First Quarter

Hourly Weather History & Observations

Time (EEST) Temp. Heat Index Dew Point Humidity Pressure Visibility Wind Dir Wind Speed Gust Speed Precip Events Conditions
12:00 AM 75.2 °F - 50.0 °F 41% 29.92 in 6.2 mi SSE 9.2 mph - N/A   Unknown
12:30 AM 73.4 °F - 50.0 °F 44% 29.92 in 6.2 mi SSE 9.2 mph - N/A   Unknown
1:00 AM 73.4 °F - 51.8 °F 47% 29.92 in 6.2 mi South 9.2 mph - N/A   Unknown
1:30 AM 71.6 °F - 50.0 °F 46% 29.92 in 6.2 mi SSE 8.1 mph - N/A   Unknown
2:00 AM 68.0 °F - 51.8 °F 56% 29.92 in 6.2 mi SSW 3.5 mph - N/A   Unknown
2:30 AM 69.8 °F - 50.0 °F 49% 29.92 in 6.2 mi Calm Calm - N/A   Unknown
3:00 AM 68.0 °F - 50.0 °F 52% 29.92 in 6.2 mi Calm Calm - N/A   Unknown
3:30 AM 66.2 °F - 51.8 °F 60% 29.92 in 6.2 mi Calm Calm - N/A   Unknown
4:00 AM 68.0 °F - 51.8 °F 56% 29.92 in 6.2 mi Calm Calm - N/A   Unknown
4:30 AM 68.0 °F - 51.8 °F 56% 29.92 in 6.2 mi Calm Calm - N/A   Unknown
5:00 AM 66.2 °F - 51.8 °F 60% 29.92 in 6.2 mi SE 4.6 mph - N/A   Unknown
5:30 AM 62.6 °F - 51.8 °F 68% 29.89 in 6.2 mi SSE 2.3 mph - N/A   Unknown
6:00 AM 66.2 °F - 51.8 °F 60% 29.92 in 6.2 mi Calm Calm - N/A   Unknown
6:30 AM 62.6 °F - 53.6 °F 72% 29.92 in 6.2 mi Calm Calm - N/A   Unknown
7:00 AM 62.6 °F - 55.4 °F 77% 29.92 in 6.2 mi Calm Calm - N/A   Unknown
7:30 AM 68.0 °F - 53.6 °F 60% 29.92 in 6.2 mi Calm Calm - N/A   Unknown
8:00 AM 71.6 °F - 53.6 °F 53% 29.92 in 6.2 mi Calm Calm - N/A   Unknown
8:30 AM 71.6 °F - 55.4 °F 57% 29.92 in 6.2 mi NW 3.5 mph - N/A   Unknown
9:00 AM 73.4 °F - 55.4 °F 53% 29.92 in 6.2 mi NNW 3.5 mph - N/A   Unknown
9:30 AM 75.2 °F - 55.4 °F 50% 29.89 in 6.2 mi WNW 3.5 mph - N/A   Unknown
10:00 AM 77.0 °F - 55.4 °F 47% 29.89 in 6.2 mi NNW 4.6 mph - N/A   Unknown
10:30 AM 80.6 °F 81.1 °F 59.0 °F 48% 29.89 in 6.2 mi Variable 5.8 mph - N/A   Unknown
11:00 AM 80.6 °F 80.8 °F 57.2 °F 45% 29.89 in 6.2 mi Variable 4.6 mph - N/A   Unknown
11:30 AM 82.4 °F 82.0 °F 57.2 °F 42% 29.86 in 6.2 mi WNW 5.8 mph - N/A   Unknown
12:00 PM 84.2 °F 83.8 °F 59.0 °F 42% 29.86 in 6.2 mi Variable 4.6 mph - N/A   Unknown
12:30 PM 86.0 °F 84.9 °F 57.2 °F 37% 29.86 in 6.2 mi WNW 5.8 mph - N/A   Unknown
1:00 PM 86.0 °F 84.5 °F 55.4 °F 35% 29.83 in 6.2 mi East 6.9 mph - N/A   Unknown
1:30 PM 87.8 °F 86.1 °F 55.4 °F 33% 29.83 in 6.2 mi NE 4.6 mph - N/A   Unknown
2:00 PM 89.6 °F 87.3 °F 53.6 °F 29% 29.80 in 6.2 mi ENE 5.8 mph - N/A   Unknown
2:30 PM 89.6 °F 87.7 °F 55.4 °F 31% 29.80 in 6.2 mi East 8.1 mph - N/A   Partly Cloudy
3:00 PM 91.4 °F - 51.8 °F 26% 29.77 in 6.2 mi East 10.4 mph - N/A   Unknown
3:30 PM 91.4 °F - 50.0 °F 24% 29.77 in 6.2 mi East 6.9 mph - N/A   Partly Cloudy
4:00 PM 87.8 °F 85.7 °F 53.6 °F 31% 29.77 in 6.2 mi South 6.9 mph - N/A   Mostly Cloudy
4:30 PM 84.2 °F 83.5 °F 57.2 °F 40% 29.77 in 6.2 mi SSW 20.7 mph - N/A   Partly Cloudy
5:00 PM 78.8 °F - 55.4 °F 44% 29.77 in 6.2 mi South 24.2 mph - N/A   Unknown
5:30 PM 78.8 °F - 55.4 °F 44% 29.77 in 6.2 mi South 4.6 mph - N/A   Unknown
6:00 PM 78.8 °F - 57.2 °F 47% 29.77 in 6.2 mi SSW 5.8 mph - N/A   Mostly Cloudy
6:30 PM 80.6 °F 80.3 °F 53.6 °F 39% 29.80 in 6.2 mi West 8.1 mph - N/A   Unknown
7:00 PM 82.4 °F 82.0 °F 57.2 °F 42% 29.80 in 6.2 mi WSW 17.3 mph - N/A   Unknown
7:30 PM 80.6 °F 80.5 °F 55.4 °F 42% 29.80 in 6.2 mi West 16.1 mph - N/A   Unknown
8:00 PM 80.6 °F 80.5 °F 55.4 °F 42% 29.80 in 6.2 mi WSW 4.6 mph - N/A   Unknown
8:30 PM 77.0 °F - 59.0 °F 54% 29.80 in 6.2 mi ESE 3.5 mph - N/A   Unknown
9:00 PM 77.0 °F - 57.2 °F 50% 29.80 in 6.2 mi Calm Calm - N/A   Overcast
9:30 PM 75.2 °F - 57.2 °F 53% 29.83 in 6.2 mi West 4.6 mph - N/A   Mostly Cloudy
10:00 PM 75.2 °F - 57.2 °F 53% 29.83 in 6.2 mi WSW 9.2 mph - N/A   Partly Cloudy
10:30 PM 73.4 °F - 57.2 °F 57% 29.83 in 6.2 mi SW 3.5 mph - N/A   Unknown
11:00 PM 71.6 °F - 59.0 °F 64% 29.83 in 6.2 mi South 8.1 mph - N/A   Unknown